Lincoln, IL

1:12 AM CDT on October 23, 2019 (GMT -0500)
Lincoln

Weather History for KAAA - August, 2019

Change the Weather History Date:

Friday, August 30, 2019

  Actual Average (KSPI) Record (KSPI)
Temperature  
Mean Temperature 68 °F 72 °F  
Max Temperature 74 °F 84 °F 98 °F (1947)
Min Temperature 63 °F 61 °F 48 °F (1986)
Degree Days  
Heating Degree Days 0 0  
Month to date heating degree days 0  
Since 1 June heating degree days 16  
Since 1 July heating degree days 1  
Cooling Degree Days 3 8  
Month to date cooling degree days 283  
Year to date cooling degree days 962  
Since 1 June cooling degree days 858  
Growing Degree Days 18 (Base 50)    
Moisture  
Dew Point 63 °F    
Average Humidity 80    
Maximum Humidity 100    
Minimum Humidity 64    
Precipitation  
Precipitation 0.00 in 0.10 in 1.77 in (1965)
Month to date precipitation 3.13  
Year to date precipitation 25.54  
Snow  
Snow - 0.00 in 0.00 in ()
Month to date snowfall 0.0  
Since 1 June snowfall 0.0  
Since 1 July snowfall 0.0  
Snow Depth -    
Sea Level Pressure  
Sea Level Pressure 30.10 in    
Wind  
Wind Speed 3 mph ()    
Max Wind Speed 13 mph    
Max Gust Speed 17 mph    
Visibility 10.0 miles    
Events      
T = Trace of Precipitation, MM = Missing Value Source: Averaged Metar Reports

Daily Weather History Graph

Daily Weather History Graph

Search for Another Location

Airport or City:

Astronomy

Aug. 30, 2019 Rise Set
Actual Time 6:22 AM CDT 7:32 PM CDT
Civil Twilight 5:54 AM CDT 8:00 PM CDT
Nautical Twilight 5:21 AM CDT 8:33 PM CDT
Astronomical Twilight 4:46 AM CDT 9:08 PM CDT
Moon 6:23 AM CDT (8/30) 8:08 PM CDT (8/30)
Length of Visible Light 14h 05m
Length of Day
13h 09m
New Moon, 0% of the Moon is Illuminated
Aug 30
New Moon
Sep 5
First Quarter
Sep 13
Full
Sep 21
Last Quarter
Sep 28
New

Hourly Weather History & Observations

Time (CDT) Temp. Dew Point Humidity Pressure Visibility Wind Dir Wind Speed Gust Speed Precip Events Conditions
12:15 AM 71.6 °F 70.7 °F 97% 29.98 in 10.0 mi Calm Calm - N/A   Clear
12:35 AM 70.7 °F 70.3 °F 99% 29.98 in 10.0 mi Calm Calm - N/A   Clear
12:55 AM 70.7 °F 70.3 °F 99% 29.97 in 10.0 mi Calm Calm - N/A   Clear
1:15 AM 70.5 °F 70.3 °F 99% 29.98 in 7.0 mi Calm Calm - N/A   Clear
1:35 AM 70.9 °F 70.9 °F 100% 29.99 in 10.0 mi Calm Calm - N/A   Mostly Cloudy
1:55 AM 71.2 °F 71.1 °F 99% 29.98 in 10.0 mi Calm Calm - N/A   Scattered Clouds
2:15 AM 71.8 °F 71.6 °F 99% 29.99 in 10.0 mi Calm Calm - N/A   Mostly Cloudy
2:35 AM 70.9 °F 70.7 °F 99% 29.99 in 10.0 mi Calm Calm - N/A   Overcast
2:55 AM 71.6 °F 71.1 °F 98% 30.00 in 10.0 mi Calm Calm - N/A   Overcast
3:15 AM 72.0 °F 69.6 °F 92% 30.01 in 10.0 mi NE 4.6 mph - N/A   Overcast
3:35 AM 71.1 °F 66.2 °F 85% 30.02 in 10.0 mi NNE 4.6 mph - N/A   Overcast
3:55 AM 69.3 °F 64.9 °F 86% 30.02 in 10.0 mi North 4.6 mph - N/A   Overcast
4:15 AM 69.1 °F 63.7 °F 83% 30.03 in 10.0 mi North 3.5 mph - N/A   Scattered Clouds
4:35 AM 68.9 °F 63.1 °F 82% 30.04 in 10.0 mi North 3.5 mph - N/A   Scattered Clouds
4:55 AM 68.2 °F 63.0 °F 83% 30.05 in 10.0 mi Calm Calm - N/A   Mostly Cloudy
5:15 AM 68.0 °F 62.8 °F 83% 30.04 in 10.0 mi North 4.6 mph - N/A   Overcast
5:35 AM 67.3 °F 61.9 °F 83% 30.05 in 10.0 mi North 5.8 mph - N/A   Overcast
5:55 AM 66.2 °F 60.8 °F 83% 30.06 in 10.0 mi North 4.6 mph - N/A   Scattered Clouds
6:15 AM 65.3 °F 60.1 °F 83% 30.07 in 10.0 mi Calm Calm - N/A   Clear
6:35 AM 65.3 °F 60.4 °F 84% 30.07 in 10.0 mi NNW 3.5 mph - N/A   Clear
6:55 AM 65.5 °F 60.1 °F 83% 30.08 in 10.0 mi North 3.5 mph - N/A   Clear
7:15 AM 64.9 °F 59.7 °F 83% 30.08 in 10.0 mi North 5.8 mph - N/A   Scattered Clouds
7:35 AM 65.3 °F 59.4 °F 81% 30.08 in 10.0 mi North 5.8 mph - N/A   Scattered Clouds
7:55 AM 65.3 °F 59.2 °F 81% 30.09 in 10.0 mi North 4.6 mph - N/A   Overcast
8:15 AM 65.7 °F 58.8 °F 79% 30.09 in 10.0 mi North 5.8 mph - N/A   Overcast
8:35 AM 66.2 °F 59.2 °F 78% 30.09 in 10.0 mi North 6.9 mph - N/A   Mostly Cloudy
8:55 AM 67.1 °F 59.0 °F 75% 30.10 in 10.0 mi NNE 6.9 mph - N/A   Scattered Clouds
9:15 AM 67.6 °F 59.2 °F 74% 30.10 in 10.0 mi NNE 8.1 mph - N/A   Clear
9:35 AM 68.2 °F 58.8 °F 72% 30.11 in 10.0 mi NE 6.9 mph - N/A   Scattered Clouds
9:55 AM 69.6 °F 60.4 °F 73% 30.11 in 10.0 mi NE 5.8 mph - N/A   Mostly Cloudy
10:15 AM 70.0 °F 59.7 °F 70% 30.11 in 10.0 mi NNE 8.1 mph - N/A   Scattered Clouds
10:35 AM 71.1 °F 60.3 °F 69% 30.12 in 10.0 mi NE 6.9 mph - N/A   Clear
10:55 AM 70.2 °F 60.4 °F 71% 30.13 in 10.0 mi NNE 6.9 mph - N/A   Mostly Cloudy
11:15 AM 70.9 °F 60.8 °F 70% 30.13 in 10.0 mi NNE 6.9 mph - N/A   Scattered Clouds
11:35 AM 70.2 °F 61.7 °F 74% 30.14 in 10.0 mi North 6.9 mph - N/A   Clear
11:55 AM 70.7 °F 61.0 °F 71% 30.15 in 10.0 mi North 4.6 mph - N/A   Scattered Clouds
12:15 PM 71.2 °F 62.1 °F 73% 30.15 in 10.0 mi North 5.8 mph - N/A   Clear
12:35 PM 72.5 °F 61.7 °F 69% 30.14 in 10.0 mi NNE 8.1 mph - N/A   Clear
12:55 PM 72.7 °F 61.9 °F 69% 30.14 in 10.0 mi NNE 8.1 mph - N/A   Clear
1:15 PM 73.6 °F 62.4 °F 68% 30.14 in 10.0 mi NE 4.6 mph - N/A   Clear
1:35 PM 73.4 °F 60.6 °F 64% 30.14 in 10.0 mi ENE 4.6 mph - N/A   Clear
1:55 PM 73.9 °F 61.0 °F 64% 30.14 in 10.0 mi Calm Calm - N/A   Clear
2:15 PM 73.8 °F 61.9 °F 66% 30.14 in 10.0 mi NNE 5.8 mph - N/A   Clear
2:35 PM 73.4 °F 62.2 °F 68% 30.13 in 10.0 mi NNE 6.9 mph - N/A   Clear
2:55 PM 73.4 °F 62.1 °F 68% 30.13 in 10.0 mi North 8.1 mph - N/A   Clear
3:15 PM 73.0 °F 62.4 °F 69% 30.09 in 10.0 mi NNE 11.5 mph - N/A   Clear
3:35 PM 72.5 °F 62.2 °F 70% 30.12 in 10.0 mi NNE 5.8 mph - N/A   Clear
3:55 PM 72.5 °F 62.6 °F 71% 30.11 in 10.0 mi NE 9.2 mph - N/A   Clear
4:15 PM 72.0 °F 63.0 °F 73% 30.10 in 10.0 mi NE 8.1 mph - N/A   Clear
4:35 PM 71.6 °F 62.1 °F 72% 30.08 in 10.0 mi NNE 12.7 mph 17.3 mph N/A   Clear
4:55 PM 72.3 °F 61.9 °F 70% 30.10 in 10.0 mi NE 5.8 mph - N/A   Clear
5:15 PM 72.5 °F 62.2 °F 70% 30.12 in 10.0 mi Calm Calm - N/A   Clear
5:35 PM 71.8 °F 63.0 °F 74% 30.12 in 10.0 mi Calm Calm - N/A   Clear
5:55 PM 72.0 °F 63.0 °F 73% 30.14 in 10.0 mi Calm Calm - N/A   Clear
6:15 PM 70.7 °F 64.0 °F 79% 30.13 in 10.0 mi NNE 3.5 mph - N/A   Clear
6:35 PM 70.5 °F 63.1 °F 77% 30.13 in 10.0 mi NNE 3.5 mph - N/A   Clear
6:55 PM 69.4 °F 63.9 °F 82% 30.14 in 10.0 mi North 4.6 mph - N/A   Clear
7:15 PM 68.7 °F 63.0 °F 82% 30.14 in 10.0 mi North 4.6 mph - N/A   Clear
7:35 PM 68.0 °F 63.1 °F 84% 30.15 in 10.0 mi North 5.8 mph - N/A   Clear
7:55 PM 67.5 °F 62.4 °F 84% 30.16 in 10.0 mi North 6.9 mph - N/A   Clear
8:15 PM 66.9 °F 62.8 °F 87% 30.18 in 10.0 mi Calm Calm - N/A   Scattered Clouds
8:35 PM 66.7 °F 62.6 °F 86% 30.19 in 10.0 mi North 4.6 mph - N/A   Scattered Clouds
8:55 PM 66.2 °F 62.6 °F 88% 30.18 in 10.0 mi North 5.8 mph - N/A   Clear
9:15 PM 65.8 °F 61.3 °F 85% 30.19 in 10.0 mi North 6.9 mph - N/A   Clear
9:35 PM 65.3 °F 60.4 °F 84% 30.19 in 10.0 mi North 4.6 mph - N/A   Clear
9:55 PM 64.8 °F 59.9 °F 84% 30.19 in 10.0 mi North 5.8 mph - N/A   Scattered Clouds
10:15 PM 64.9 °F 59.4 °F 82% 30.19 in 10.0 mi NNE 4.6 mph - N/A   Overcast
10:35 PM 64.4 °F 59.2 °F 83% 30.19 in 10.0 mi NNE 5.8 mph - N/A   Overcast
10:55 PM 64.4 °F 58.5 °F 81% 30.19 in 10.0 mi NE 5.8 mph - N/A   Overcast
11:15 PM 64.4 °F 58.5 °F 81% 30.20 in 10.0 mi NE 3.5 mph - N/A   Overcast
11:35 PM 63.7 °F 58.5 °F 83% 30.20 in 10.0 mi NNE 5.8 mph - N/A   Overcast
11:55 PM 64.4 °F 58.1 °F 80% 30.21 in 10.0 mi Calm Calm - N/A   Overcast